Hoquiam, WA
on Thursday, December 27, 2012

Thursday
Previous Day Next Day
Daily Summary
 ActualAverageRecord
Temperature
Mean Temperature °F 41°F  
Max Temperature 46°F 46°F 55°F (1980)
Min Temperature 41°F 37°F 25°F (1978)
Degree Days
Heating Degree Days 22 24  
Month to date heating degree days 635  
Cooling Degree Days 0 0  
Month to date cooling degree days 0  
Year to date cooling degree days 23  
Moisture
Dew Point 41°F   
Average Humidity 90    
Maximum Humidity 96    
Minimum Humidity 83    
Precipitation
Precipitation 0.11 in 0.32 in 2.40 in (1998)
Month to date precipitation 8.70  
Year to date precipitation 66.29  
Wind
Wind Speed 5 mph   
Max Wind Speed 10 mph   
Max Gust Speed mph   
Visibility 9 miles   
Events Rain   

Key: T is trace of precipitation, MM is missing value
Source: NWS Daily Summary
Time(PST)TemperatureDew PointHumidity Pressure Visibility Wind DirectionWind SpeedGust SpeedPrecipitationEvents Conditions
12:44 AM 44.6°F 42.8°F 93% 29.96 in 10.0 miles WNW 5.8 mph - 0.00 in   Overcast
12:53 AM 44.1°F 42.1°F 93% 29.98 in 10.0 miles WNW 5.8 mph - 0.00 in   Overcast
1:39 AM 44.6°F 41.0°F 87% 29.99 in 10.0 miles West 6.9 mph - 0.00 in Rain Light Rain
1:53 AM 44.1°F 42.1°F 93% 30.01 in 7.0 miles West 6.9 mph - 0.01 in Rain Light Rain
2:08 AM 44.6°F 42.8°F 93% 30.00 in 10.0 miles West 5.8 mph - 0.00 in   Overcast
2:46 AM 44.6°F 42.8°F 93% 30.01 in 6.0 miles WNW 5.8 mph - 0.00 in Rain Light Rain
2:53 AM 44.1°F 42.1°F 93% 30.02 in 6.0 miles WNW 5.8 mph - 0.00 in Rain Light Rain
3:13 AM 44.6°F 41.0°F 87% 30.02 in 5.0 miles WSW 6.9 mph - 0.03 in Rain Light Rain
3:53 AM 44.1°F 42.1°F 93% 30.04 in 9.0 miles Calm Calm - 0.04 in   Overcast
4:03 AM 44.6°F 41.0°F 87% 30.02 in 6.0 miles Calm Calm - 0.01 in Rain Light Rain
4:21 AM 44.6°F 42.8°F 93% 30.03 in 10.0 miles Calm Calm - 0.01 in   Overcast
4:53 AM 43.0°F 41.0°F 93% 30.04 in 10.0 miles Calm Calm - 0.01 in   Overcast
5:53 AM 42.1°F 39.9°F 92% 30.06 in 10.0 miles Calm Calm - N/A   Overcast
6:53 AM 42.1°F 39.9°F 92% 30.07 in 10.0 miles Calm Calm - N/A   Overcast
7:53 AM 41.0°F 39.0°F 93% 30.09 in 10.0 miles Calm Calm - 0.00 in   Overcast
8:53 AM 42.1°F 41.0°F 96% 30.10 in 10.0 miles Calm Calm - 0.01 in   Mostly Cloudy
9:53 AM 44.1°F 41.0°F 89% 30.12 in 10.0 miles Calm Calm - N/A   Scattered Clouds
10:53 AM 45.0°F 41.0°F 86% 30.14 in 10.0 miles South 6.9 mph - N/A   Overcast
11:53 AM 45.0°F 41.0°F 86% 30.14 in 10.0 miles SSE 8.1 mph - N/A   Mostly Cloudy
12:53 PM 46.9°F 42.1°F 83% 30.14 in 10.0 miles South 3.5 mph - 0.00 in   Overcast
1:53 PM 45.0°F 41.0°F 86% 30.14 in 10.0 miles South 10.4 mph - 0.03 in   Mostly Cloudy
2:05 PM 46.4°F 42.8°F 87% 30.13 in 10.0 miles SSE 5.8 mph - N/A   Mostly Cloudy
2:17 PM 46.4°F 42.8°F 87% 30.13 in 10.0 miles SSE 5.8 mph - N/A   Scattered Clouds
2:53 PM 45.0°F 41.0°F 86% 30.14 in 10.0 miles ESE 3.5 mph - N/A   Clear
3:53 PM 44.6°F 41.0°F 87% 30.13 in 10.0 miles Calm Calm - N/A   Mostly Cloudy
4:53 PM 42.1°F 39.9°F 92% 30.15 in 10.0 miles East 4.6 mph - N/A   Partly Cloudy
5:53 PM 44.1°F 41.0°F 89% 30.15 in 10.0 miles East 4.6 mph - 0.00 in   Overcast
6:08 PM 42.8°F 41.0°F 93% 30.14 in 10.0 miles ENE 4.6 mph - N/A   Overcast
6:53 PM 43.0°F 41.0°F 93% 30.14 in 10.0 miles ENE 4.6 mph - N/A   Overcast
7:17 PM 42.8°F 41.0°F 93% 30.13 in 10.0 miles ENE 6.9 mph - N/A   Overcast
7:53 PM 43.0°F 41.0°F 93% 30.14 in 10.0 miles East 8.1 mph - N/A   Overcast
8:17 PM 42.8°F 39.2°F 87% 30.12 in 10.0 miles ENE 6.9 mph - N/A   Overcast
8:53 PM 43.0°F 39.9°F 89% 30.13 in 10.0 miles ENE 6.9 mph - N/A   Overcast
9:08 PM 42.8°F 39.2°F 87% 30.12 in 10.0 miles ENE 8.1 mph - N/A   Overcast
9:53 PM 43.0°F 39.9°F 89% 30.13 in 10.0 miles ENE 8.1 mph - N/A   Overcast
10:13 PM 42.8°F 39.2°F 87% 30.12 in 10.0 miles ENE 8.1 mph - N/A   Overcast
10:31 PM 42.8°F 39.2°F 87% 30.12 in 10.0 miles ENE 8.1 mph - N/A   Overcast
10:53 PM 42.1°F 39.9°F 92% 30.14 in 10.0 miles ENE 8.1 mph - N/A   Overcast
11:53 PM 42.1°F 39.9°F 92% 30.14 in 9.0 miles ENE 8.1 mph - 0.01 in Rain Light Rain
Moon Phase
Dec. 27 Dec. 28 Jan. 04 Jan. 11 Jan. 18
Sunrise:08:00 AM (PST) Moon Rise:04:24 PM (PST)12/27
Sunset:04:33 PM (PST) Moon Set:07:14 AM (PST)12/27

Copyright © 2014 The Weather Underground, Inc.